Time,TemperatureF,DewpointF,PressureIn,WindDirection,WindDirectionDegrees,WindSpeedMPH,WindSpeedGustMPH,Humidity,HourlyPrecipIn,Conditions,Clouds,dailyrainin,SoftwareType,DateUTC
2013-02-11 00:00:00,71.4,64.2,30.21,East,98,0.0,2.0,78,0.00,,,0.02,Wunderground v.1.15,2013-02-11 05:00:00,
2013-02-11 00:01:00,71.3,64.1,30.21,East,96,1.0,2.0,78,0.00,,,0.00,Wunderground v.1.15,2013-02-11 05:01:00,
2013-02-11 00:06:00,71.3,64.1,30.21,ESE,108,0.0,6.0,78,0.00,,,0.00,Wunderground v.1.15,2013-02-11 05:06:00,
2013-02-11 00:10:00,71.3,64.1,30.21,ESE,123,6.0,6.0,78,0.00,,,0.00,Wunderground v.1.15,2013-02-11 05:10:00,
2013-02-11 00:15:00,71.3,64.1,30.21,East,86,3.0,6.0,78,0.00,,,0.00,Wunderground v.1.15,2013-02-11 05:15:00,
2013-02-11 00:21:00,71.4,64.2,30.21,East,89,1.0,2.0,78,0.00,,,0.00,Wunderground v.1.15,2013-02-11 05:21:00,
2013-02-11 00:26:00,71.5,64.3,30.21,ESE,108,4.0,4.0,78,0.00,,,0.00,Wunderground v.1.15,2013-02-11 05:26:00,
2013-02-11 00:32:00,71.6,64.0,30.21,ENE,72,2.0,3.0,77,0.00,,,0.00,Wunderground v.1.15,2013-02-11 05:32:00,
2013-02-11 00:37:00,71.7,64.1,30.21,ENE,62,6.0,6.0,77,0.00,,,0.00,Wunderground v.1.15,2013-02-11 05:37:00,
2013-02-11 00:42:00,71.7,64.1,30.21,SE,132,1.0,3.0,77,0.00,,,0.00,Wunderground v.1.15,2013-02-11 05:42:00,
2013-02-11 00:48:00,71.6,64.4,30.21,ESE,108,3.0,3.0,78,0.00,,,0.00,Wunderground v.1.15,2013-02-11 05:48:00,
2013-02-11 00:54:00,71.5,64.3,30.21,ESE,121,4.0,4.0,78,0.00,,,0.00,Wunderground v.1.15,2013-02-11 05:54:00,
2013-02-11 01:00:00,71.3,64.1,30.21,ESE,111,1.0,1.0,78,0.00,,,0.00,Wunderground v.1.15,2013-02-11 06:00:00,
2013-02-11 01:06:00,71.1,63.9,30.21,NE,55,0.0,4.0,78,0.00,,,0.00,Wunderground v.1.15,2013-02-11 06:06:00,
2013-02-11 01:11:00,71.0,63.8,30.21,ESE,108,0.0,1.0,78,0.00,,,0.00,Wunderground v.1.15,2013-02-11 06:11:00,
2013-02-11 01:17:00,70.8,63.6,30.21,ESE,120,2.0,4.0,78,0.00,,,0.00,Wunderground v.1.15,2013-02-11 06:17:00,
2013-02-11 01:22:00,70.6,63.4,30.21,ESE,110,0.0,1.0,78,0.00,,,0.00,Wunderground v.1.15,2013-02-11 06:22:00,
2013-02-11 01:27:00,70.5,63.3,30.21,ESE,108,0.0,1.0,78,0.00,,,0.00,Wunderground v.1.15,2013-02-11 06:27:00,
2013-02-11 01:32:00,70.4,63.2,30.20,East,97,0.0,1.0,78,0.00,,,0.00,Wunderground v.1.15,2013-02-11 06:32:00,
2013-02-11 01:37:00,70.3,63.5,30.20,SSE,148,0.0,1.0,79,0.00,,,0.00,Wunderground v.1.15,2013-02-11 06:37:00,
2013-02-11 01:42:00,70.1,63.3,30.20,ESE,111,0.0,1.0,79,0.00,,,0.00,Wunderground v.1.15,2013-02-11 06:42:00,
2013-02-11 01:48:00,69.9,63.4,30.20,ESE,115,0.0,1.0,80,0.00,,,0.00,Wunderground v.1.15,2013-02-11 06:48:00,
2013-02-11 01:53:00,69.8,63.3,30.20,East,84,0.0,2.0,80,0.00,,,0.00,Wunderground v.1.15,2013-02-11 06:53:00,
2013-02-11 01:58:00,69.7,63.3,30.20,ESE,111,0.0,2.0,80,0.00,,,0.00,Wunderground v.1.15,2013-02-11 06:58:00,
2013-02-11 02:03:00,69.6,63.2,30.19,ESE,105,0.0,2.0,80,0.00,,,0.00,Wunderground v.1.15,2013-02-11 07:03:00,
2013-02-11 02:09:00,69.5,63.1,30.19,East,93,1.0,3.0,80,0.00,,,0.00,Wunderground v.1.15,2013-02-11 07:09:00,
2013-02-11 02:14:00,69.4,63.0,30.19,ESE,117,0.0,1.0,80,0.00,,,0.00,Wunderground v.1.15,2013-02-11 07:14:00,
2013-02-11 02:19:00,69.3,63.2,30.19,SE,139,0.0,2.0,81,0.00,,,0.00,Wunderground v.1.15,2013-02-11 07:19:00,
2013-02-11 02:24:00,69.3,63.2,30.19,East,101,0.0,3.0,81,0.00,,,0.00,Wunderground v.1.15,2013-02-11 07:24:00,
2013-02-11 02:29:00,69.3,63.2,30.19,SSE,162,0.0,3.0,81,0.00,,,0.00,Wunderground v.1.15,2013-02-11 07:29:00,
2013-02-11 02:34:00,69.4,63.3,30.19,ENE,69,1.0,2.0,81,0.00,,,0.00,Wunderground v.1.15,2013-02-11 07:34:00,
2013-02-11 02:39:00,69.3,63.2,30.19,ESE,120,0.0,4.0,81,0.00,,,0.00,Wunderground v.1.15,2013-02-11 07:39:00,
2013-02-11 02:44:00,69.3,63.2,30.18,East,96,0.0,4.0,81,0.00,,,0.00,Wunderground v.1.15,2013-02-11 07:44:00,
2013-02-11 02:49:00,69.3,63.2,30.19,ESE,103,0.0,4.0,81,0.00,,,0.00,Wunderground v.1.15,2013-02-11 07:49:00,
2013-02-11 02:54:00,69.3,63.6,30.18,ESE,123,0.0,3.0,82,0.00,,,0.00,Wunderground v.1.15,2013-02-11 07:54:00,
2013-02-11 02:59:00,69.3,63.6,30.18,SE,124,0.0,3.0,82,0.00,,,0.00,Wunderground v.1.15,2013-02-11 07:59:00,
2013-02-11 03:04:00,69.3,63.6,30.18,SE,134,2.0,2.0,82,0.00,,,0.00,Wunderground v.1.15,2013-02-11 08:04:00,
2013-02-11 03:09:00,69.3,63.6,30.18,ESE,115,0.0,2.0,82,0.00,,,0.00,Wunderground v.1.15,2013-02-11 08:09:00,
2013-02-11 03:14:00,69.2,63.5,30.18,ESE,102,0.0,2.0,82,0.00,,,0.00,Wunderground v.1.15,2013-02-11 08:14:00,
2013-02-11 03:19:00,69.0,63.6,30.18,East,89,0.0,2.0,83,0.00,,,0.00,Wunderground v.1.15,2013-02-11 08:19:00,
2013-02-11 03:24:00,69.0,63.6,30.18,East,101,0.0,1.0,83,0.00,,,0.00,Wunderground v.1.15,2013-02-11 08:24:00,
2013-02-11 03:29:00,68.8,63.4,30.18,ESE,105,0.0,1.0,83,0.00,,,0.00,Wunderground v.1.15,2013-02-11 08:29:00,
2013-02-11 03:34:00,68.7,63.3,30.18,ESE,109,0.0,1.0,83,0.00,,,0.00,Wunderground v.1.15,2013-02-11 08:34:00,
2013-02-11 03:39:00,68.5,63.1,30.18,ESE,111,0.0,1.0,83,0.00,,,0.00,Wunderground v.1.15,2013-02-11 08:39:00,
2013-02-11 03:44:00,68.3,62.9,30.18,ESE,104,0.0,1.0,83,0.00,,,0.00,Wunderground v.1.15,2013-02-11 08:44:00,
2013-02-11 03:49:00,68.2,63.2,30.18,East,96,0.0,1.0,84,0.00,,,0.00,Wunderground v.1.15,2013-02-11 08:49:00,
2013-02-11 03:54:00,68.0,63.0,30.18,ESE,115,0.0,1.0,84,0.00,,,0.00,Wunderground v.1.15,2013-02-11 08:54:00,
2013-02-11 04:00:00,67.9,62.9,30.18,ESE,114,0.0,0.0,84,0.00,,,0.00,Wunderground v.1.15,2013-02-11 09:00:00,
2013-02-11 04:05:00,67.6,62.6,30.18,ESE,104,0.0,1.0,84,0.00,,,0.00,Wunderground v.1.15,2013-02-11 09:05:00,
2013-02-11 04:10:00,67.4,62.7,30.18,ESE,104,0.0,0.0,85,0.00,,,0.00,Wunderground v.1.15,2013-02-11 09:10:00,
2013-02-11 04:15:00,67.2,62.5,30.18,ESE,104,0.0,0.0,85,0.00,,,0.00,Wunderground v.1.15,2013-02-11 09:15:00,
2013-02-11 04:20:00,67.1,62.8,30.17,ESE,103,0.0,0.0,86,0.00,,,0.00,Wunderground v.1.15,2013-02-11 09:20:00,
2013-02-11 04:25:00,67.2,62.9,30.17,East,98,0.0,1.0,86,0.00,,,0.00,Wunderground v.1.15,2013-02-11 09:25:00,
2013-02-11 04:30:00,67.4,62.7,30.18,ESE,108,0.0,0.0,85,0.00,,,0.00,Wunderground v.1.15,2013-02-11 09:30:00,
2013-02-11 04:35:00,67.5,62.8,30.18,East,85,0.0,3.0,85,0.00,,,0.00,Wunderground v.1.15,2013-02-11 09:35:00,
2013-02-11 04:40:00,67.5,62.8,30.18,East,91,0.0,0.0,85,0.00,,,0.00,Wunderground v.1.15,2013-02-11 09:40:00,
2013-02-11 04:45:00,67.4,62.7,30.17,ESE,123,0.0,1.0,85,0.00,,,0.00,Wunderground v.1.15,2013-02-11 09:45:00,
2013-02-11 04:50:00,67.2,62.9,30.18,ESE,121,0.0,0.0,86,0.00,,,0.00,Wunderground v.1.15,2013-02-11 09:50:00,
2013-02-11 04:55:00,67.3,63.0,30.18,East,83,0.0,2.0,86,0.00,,,0.00,Wunderground v.1.15,2013-02-11 09:55:00,
2013-02-11 05:00:00,67.5,62.8,30.18,ESE,108,0.0,1.0,85,0.00,,,0.00,Wunderground v.1.15,2013-02-11 10:00:00,
2013-02-11 05:05:00,67.6,62.9,30.18,ESE,110,0.0,1.0,85,0.00,,,0.00,Wunderground v.1.15,2013-02-11 10:05:00,
2013-02-11 05:10:00,67.6,62.9,30.18,ESE,113,0.0,0.0,85,0.00,,,0.00,Wunderground v.1.15,2013-02-11 10:10:00,
2013-02-11 05:15:00,67.6,62.9,30.18,ESE,105,0.0,1.0,85,0.00,,,0.00,Wunderground v.1.15,2013-02-11 10:15:00,
2013-02-11 05:20:00,67.6,63.3,30.18,East,93,0.0,0.0,86,0.00,,,0.00,Wunderground v.1.15,2013-02-11 10:20:00,
2013-02-11 05:25:00,67.8,63.5,30.18,East,92,1.0,2.0,86,0.00,,,0.00,Wunderground v.1.15,2013-02-11 10:25:00,
2013-02-11 05:30:00,68.0,63.3,30.17,ESE,103,0.0,1.0,85,0.00,,,0.00,Wunderground v.1.15,2013-02-11 10:30:00,
2013-02-11 05:35:00,68.1,63.4,30.18,ESE,117,0.0,3.0,85,0.00,,,0.00,Wunderground v.1.15,2013-02-11 10:35:00,
2013-02-11 05:40:00,68.3,63.6,30.18,East,96,0.0,1.0,85,0.00,,,0.00,Wunderground v.1.15,2013-02-11 10:40:00,
2013-02-11 05:45:00,68.5,63.8,30.18,ESE,109,0.0,4.0,85,0.00,,,0.00,Wunderground v.1.15,2013-02-11 10:45:00,
2013-02-11 05:50:00,68.7,63.7,30.18,ESE,118,2.0,2.0,84,0.00,,,0.00,Wunderground v.1.15,2013-02-11 10:50:00,
2013-02-11 05:55:00,68.8,63.8,30.18,ESE,108,0.0,2.0,84,0.00,,,0.00,Wunderground v.1.15,2013-02-11 10:55:00,
2013-02-11 06:00:00,68.6,63.6,30.18,ESE,105,0.0,0.0,84,0.00,,,0.00,Wunderground v.1.15,2013-02-11 11:00:00,
2013-02-11 06:05:00,68.5,63.8,30.18,East,80,0.0,2.0,85,0.00,,,0.00,Wunderground v.1.15,2013-02-11 11:05:00,
2013-02-11 06:10:00,68.5,63.5,30.19,East,99,0.0,0.0,84,0.00,,,0.00,Wunderground v.1.15,2013-02-11 11:10:00,
2013-02-11 06:15:00,68.5,63.8,30.19,East,101,0.0,2.0,85,0.00,,,0.00,Wunderground v.1.15,2013-02-11 11:15:00,
2013-02-11 06:20:00,68.5,63.8,30.19,ESE,115,0.0,0.0,85,0.00,,,0.00,Wunderground v.1.15,2013-02-11 11:20:00,
2013-02-11 06:25:00,68.6,63.9,30.18,SE,143,0.0,3.0,85,0.00,,,0.00,Wunderground v.1.15,2013-02-11 11:25:00,
2013-02-11 06:30:00,68.6,63.9,30.18,SSW,205,2.0,3.0,85,0.00,,,0.00,Wunderground v.1.15,2013-02-11 11:30:00,
2013-02-11 06:35:00,68.7,64.0,30.18,ESE,110,1.0,3.0,85,0.00,,,0.00,Wunderground v.1.15,2013-02-11 11:35:00,
2013-02-11 06:40:00,68.9,64.2,30.19,SE,128,2.0,2.0,85,0.00,,,0.00,Wunderground v.1.15,2013-02-11 11:40:00,
2013-02-11 06:45:00,69.0,64.0,30.19,ESE,111,0.0,3.0,84,0.00,,,0.00,Wunderground v.1.15,2013-02-11 11:45:00,
2013-02-11 06:50:00,69.2,64.2,30.19,ESE,111,1.0,1.0,84,0.00,,,0.00,Wunderground v.1.15,2013-02-11 11:50:00,
2013-02-11 06:55:00,69.3,64.3,30.19,ESE,117,0.0,3.0,84,0.00,,,0.00,Wunderground v.1.15,2013-02-11 11:55:00,
2013-02-11 07:00:00,69.3,64.3,30.19,East,97,0.0,2.0,84,0.00,,,0.00,Wunderground v.1.15,2013-02-11 12:00:00,
2013-02-11 07:05:00,69.3,64.3,30.19,ESE,103,0.0,3.0,84,0.00,,,0.00,Wunderground v.1.15,2013-02-11 12:05:00,
2013-02-11 07:10:00,69.4,64.4,30.19,ESE,102,0.0,1.0,84,0.00,,,0.00,Wunderground v.1.15,2013-02-11 12:10:00,
2013-02-11 07:15:00,69.5,64.5,30.19,East,87,0.0,4.0,84,0.00,,,0.00,Wunderground v.1.15,2013-02-11 12:15:00,
2013-02-11 07:20:00,69.5,64.5,30.20,East,80,1.0,2.0,84,0.00,,,0.00,Wunderground v.1.15,2013-02-11 12:20:00,
2013-02-11 07:25:00,69.8,64.7,30.20,East,95,0.0,5.0,84,0.00,,,0.00,Wunderground v.1.15,2013-02-11 12:25:00,
2013-02-11 07:30:00,70.0,64.6,30.20,SE,124,3.0,3.0,83,0.00,,,0.00,Wunderground v.1.15,2013-02-11 12:30:00,
2013-02-11 07:35:00,70.3,64.9,30.20,East,100,0.0,4.0,83,0.00,,,0.00,Wunderground v.1.15,2013-02-11 12:35:00,
2013-02-11 07:40:00,70.5,65.1,30.20,SE,127,0.0,1.0,83,0.00,,,0.00,Wunderground v.1.15,2013-02-11 12:40:00,
2013-02-11 07:45:00,70.9,65.1,30.20,ESE,114,0.0,4.0,82,0.00,,,0.00,Wunderground v.1.15,2013-02-11 12:45:00,
2013-02-11 07:50:00,71.2,65.4,30.20,East,97,0.0,2.0,82,0.00,,,0.00,Wunderground v.1.15,2013-02-11 12:50:00,
2013-02-11 07:55:00,71.5,65.4,30.21,East,101,2.0,6.0,81,0.00,,,0.00,Wunderground v.1.15,2013-02-11 12:55:00,
2013-02-11 08:00:00,71.5,65.4,30.21,SE,142,3.0,3.0,81,0.00,,,0.00,Wunderground v.1.15,2013-02-11 13:00:00,
2013-02-11 08:06:00,71.9,65.8,30.21,ENE,77,2.0,5.0,81,0.00,,,0.00,Wunderground v.1.15,2013-02-11 13:06:00,
2013-02-11 08:11:00,72.4,65.9,30.21,ESE,123,0.0,3.0,80,0.00,,,0.00,Wunderground v.1.15,2013-02-11 13:11:00,
2013-02-11 08:16:00,72.9,66.0,30.22,East,91,0.0,3.0,79,0.00,,,0.00,Wunderground v.1.15,2013-02-11 13:16:00,
2013-02-11 08:21:00,73.3,66.0,30.22,ESE,115,0.0,2.0,78,0.00,,,0.00,Wunderground v.1.15,2013-02-11 13:21:00,
2013-02-11 08:26:00,73.8,66.1,30.22,ENE,63,0.0,5.0,77,0.00,,,0.00,Wunderground v.1.15,2013-02-11 13:26:00,
2013-02-11 08:31:00,74.0,66.0,30.22,ESE,112,6.0,8.0,76,0.00,,,0.00,Wunderground v.1.15,2013-02-11 13:31:00,
2013-02-11 08:36:00,74.2,66.1,30.22,East,82,1.0,8.0,76,0.00,,,0.00,Wunderground v.1.15,2013-02-11 13:36:00,
2013-02-11 08:41:00,74.4,66.3,30.22,SW,216,4.0,6.0,76,0.00,,,0.00,Wunderground v.1.15,2013-02-11 13:41:00,
2013-02-11 08:46:00,74.6,66.1,30.22,SW,228,2.0,8.0,75,0.00,,,0.00,Wunderground v.1.15,2013-02-11 13:46:00,
2013-02-11 08:51:00,74.6,66.1,30.22,East,84,0.0,3.0,75,0.00,,,0.00,Wunderground v.1.15,2013-02-11 13:51:00,
2013-02-11 08:56:00,74.9,66.4,30.22,South,186,2.0,8.0,75,0.00,,,0.00,Wunderground v.1.15,2013-02-11 13:56:00,
2013-02-11 09:01:00,75.2,65.9,30.22,NE,47,2.0,5.0,73,0.00,,,0.00,Wunderground v.1.15,2013-02-11 14:01:00,
2013-02-11 09:06:00,75.2,66.3,30.22,ENE,75,1.0,10.0,74,0.00,,,0.00,Wunderground v.1.15,2013-02-11 14:06:00,
2013-02-11 09:11:00,75.2,65.6,30.22,ESE,118,2.0,7.0,72,0.00,,,0.00,Wunderground v.1.15,2013-02-11 14:11:00,
2013-02-11 09:16:00,75.4,66.5,30.23,NE,51,6.0,7.0,74,0.00,,,0.00,Wunderground v.1.15,2013-02-11 14:16:00,
2013-02-11 09:21:00,75.4,66.5,30.23,SSE,148,7.0,7.0,74,0.00,,,0.00,Wunderground v.1.15,2013-02-11 14:21:00,
2013-02-11 09:26:00,75.1,66.6,30.23,SE,124,2.0,7.0,75,0.00,,,0.00,Wunderground v.1.15,2013-02-11 14:26:00,
2013-02-11 09:31:00,75.1,66.6,30.23,East,97,6.0,8.0,75,0.00,,,0.00,Wunderground v.1.15,2013-02-11 14:31:00,
2013-02-11 09:36:00,75.1,66.6,30.23,East,79,3.0,8.0,75,0.00,,,0.00,Wunderground v.1.15,2013-02-11 14:36:00,
2013-02-11 09:41:00,75.4,66.1,30.23,ESE,107,8.0,8.0,73,0.00,,,0.00,Wunderground v.1.15,2013-02-11 14:41:00,
2013-02-11 09:46:00,75.6,66.7,30.23,ESE,115,2.0,12.0,74,0.00,,,0.00,Wunderground v.1.15,2013-02-11 14:46:00,
2013-02-11 09:51:00,75.9,66.6,30.23,SE,132,4.0,5.0,73,0.00,,,0.00,Wunderground v.1.15,2013-02-11 14:51:00,
2013-02-11 09:56:00,75.9,66.6,30.23,South,172,5.0,8.0,73,0.00,,,0.00,Wunderground v.1.15,2013-02-11 14:56:00,
2013-02-11 10:01:00,75.7,66.4,30.23,SE,129,0.0,6.0,73,0.00,,,0.00,Wunderground v.1.15,2013-02-11 15:01:00,
2013-02-11 10:06:00,75.8,66.5,30.23,ESE,108,5.0,12.0,73,0.00,,,0.00,Wunderground v.1.15,2013-02-11 15:06:00,
2013-02-11 10:11:00,75.8,66.5,30.23,ESE,103,0.0,3.0,73,0.00,,,0.00,Wunderground v.1.15,2013-02-11 15:11:00,
2013-02-11 10:16:00,75.8,66.1,30.23,ESE,118,1.0,11.0,72,0.00,,,0.00,Wunderground v.1.15,2013-02-11 15:16:00,
2013-02-11 10:21:00,75.9,66.2,30.24,NE,47,1.0,6.0,72,0.00,,,0.00,Wunderground v.1.15,2013-02-11 15:21:00,
2013-02-11 10:26:00,75.8,66.5,30.24,ENE,65,6.0,10.0,73,0.00,,,0.00,Wunderground v.1.15,2013-02-11 15:26:00,
2013-02-11 10:31:00,75.9,66.6,30.24,SSE,156,3.0,8.0,73,0.00,,,0.00,Wunderground v.1.15,2013-02-11 15:31:00,
2013-02-11 10:36:00,75.9,66.2,30.24,ESE,105,0.0,8.0,72,0.00,,,0.00,Wunderground v.1.15,2013-02-11 15:36:00,
2013-02-11 10:41:00,75.9,66.2,30.23,ESE,110,2.0,3.0,72,0.00,,,0.00,Wunderground v.1.15,2013-02-11 15:41:00,
2013-02-11 10:46:00,75.8,66.1,30.23,South,184,4.0,8.0,72,0.00,,,0.00,Wunderground v.1.15,2013-02-11 15:46:00,
2013-02-11 10:51:00,76.0,66.7,30.23,East,100,7.0,7.0,73,0.00,,,0.00,Wunderground v.1.15,2013-02-11 15:51:00,
2013-02-11 10:56:00,76.3,66.2,30.23,SE,143,2.0,8.0,71,0.00,,,0.00,Wunderground v.1.15,2013-02-11 15:56:00,
2013-02-11 11:01:00,76.5,66.8,30.23,East,80,0.0,3.0,72,0.00,,,0.00,Wunderground v.1.15,2013-02-11 16:01:00,
2013-02-11 11:06:00,77.2,67.1,30.23,SSW,211,3.0,9.0,71,0.00,,,0.00,Wunderground v.1.15,2013-02-11 16:06:00,
2013-02-11 11:11:00,77.6,67.0,30.23,ESE,118,0.0,7.0,70,0.00,,,0.00,Wunderground v.1.15,2013-02-11 16:11:00,
2013-02-11 11:16:00,77.8,66.8,30.23,SSE,166,4.0,11.0,69,0.00,,,0.00,Wunderground v.1.15,2013-02-11 16:16:00,
2013-02-11 11:21:00,77.2,66.7,30.23,East,86,2.0,5.0,70,0.00,,,0.00,Wunderground v.1.15,2013-02-11 16:21:00,
2013-02-11 11:26:00,76.8,66.3,30.23,ESE,104,2.0,9.0,70,0.00,,,0.00,Wunderground v.1.15,2013-02-11 16:26:00,
2013-02-11 11:31:00,77.2,66.7,30.23,ENE,68,2.0,10.0,70,0.00,,,0.00,Wunderground v.1.15,2013-02-11 16:31:00,
2013-02-11 11:36:00,77.7,66.7,30.23,ESE,121,4.0,10.0,69,0.00,,,0.00,Wunderground v.1.15,2013-02-11 16:36:00,
2013-02-11 11:41:00,78.1,67.1,30.23,NE,39,3.0,9.0,69,0.00,,,0.00,Wunderground v.1.15,2013-02-11 16:41:00,
2013-02-11 11:46:00,78.4,67.0,30.22,SE,146,4.0,9.0,68,0.00,,,0.00,Wunderground v.1.15,2013-02-11 16:46:00,
2013-02-11 11:51:00,78.8,66.9,30.22,South,181,7.0,8.0,67,0.00,,,0.00,Wunderground v.1.15,2013-02-11 16:51:00,
2013-02-11 11:56:00,79.0,67.1,30.22,NNE,22,0.0,8.0,67,0.00,,,0.00,Wunderground v.1.15,2013-02-11 16:56:00,
2013-02-11 12:01:00,79.0,66.7,30.22,ENE,65,0.0,6.0,66,0.00,,,0.00,Wunderground v.1.15,2013-02-11 17:01:00,
2013-02-11 12:06:00,79.6,67.7,30.22,SW,218,2.0,7.0,67,0.00,,,0.00,Wunderground v.1.15,2013-02-11 17:06:00,
2013-02-11 12:11:00,80.0,67.2,30.22,South,181,2.0,4.0,65,0.00,,,0.00,Wunderground v.1.15,2013-02-11 17:11:00,
2013-02-11 12:17:00,79.8,67.4,30.22,SSE,157,3.0,6.0,66,0.00,,,0.00,Wunderground v.1.15,2013-02-11 17:17:00,
2013-02-11 12:22:00,79.6,67.2,30.21,South,169,2.0,4.0,66,0.00,,,0.00,Wunderground v.1.15,2013-02-11 17:22:00,
2013-02-11 12:27:00,79.0,67.1,30.21,SE,129,1.0,7.0,67,0.00,,,0.00,Wunderground v.1.15,2013-02-11 17:27:00,
2013-02-11 12:32:00,78.1,66.7,30.21,NNE,22,4.0,6.0,68,0.00,,,0.00,Wunderground v.1.15,2013-02-11 17:32:00,
2013-02-11 12:37:00,77.5,66.5,30.21,East,95,4.0,8.0,69,0.00,,,0.00,Wunderground v.1.15,2013-02-11 17:37:00,
2013-02-11 12:42:00,77.0,66.0,30.21,SE,124,1.0,6.0,69,0.00,,,0.00,Wunderground v.1.15,2013-02-11 17:42:00,
2013-02-11 12:47:00,76.8,65.9,30.21,East,101,2.0,6.0,69,0.00,,,0.00,Wunderground v.1.15,2013-02-11 17:47:00,
2013-02-11 12:52:00,76.8,66.3,30.20,SSE,162,0.0,5.0,70,0.00,,,0.00,Wunderground v.1.15,2013-02-11 17:52:00,
2013-02-11 12:57:00,76.8,65.9,30.20,WSW,240,4.0,6.0,69,0.00,,,0.00,Wunderground v.1.15,2013-02-11 17:57:00,
2013-02-11 13:02:00,77.0,66.5,30.20,East,86,2.0,5.0,70,0.00,,,0.00,Wunderground v.1.15,2013-02-11 18:02:00,
2013-02-11 13:07:00,77.5,66.5,30.19,East,100,4.0,11.0,69,0.00,,,0.00,Wunderground v.1.15,2013-02-11 18:07:00,
2013-02-11 13:12:00,77.7,67.1,30.19,East,91,0.0,8.0,70,0.00,,,0.00,Wunderground v.1.15,2013-02-11 18:12:00,
2013-02-11 13:17:00,78.3,66.4,30.19,ENE,77,3.0,10.0,67,0.00,,,0.00,Wunderground v.1.15,2013-02-11 18:17:00,
2013-02-11 13:22:00,78.7,66.8,30.19,SE,136,2.0,4.0,67,0.00,,,0.00,Wunderground v.1.15,2013-02-11 18:22:00,
2013-02-11 13:27:00,78.9,67.4,30.19,ESE,119,1.0,8.0,68,0.00,,,0.00,Wunderground v.1.15,2013-02-11 18:27:00,
2013-02-11 13:32:00,79.2,67.3,30.18,SE,138,0.0,7.0,67,0.00,,,0.00,Wunderground v.1.15,2013-02-11 18:32:00,
2013-02-11 13:37:00,79.6,67.2,30.18,SE,129,1.0,7.0,66,0.00,,,0.00,Wunderground v.1.15,2013-02-11 18:37:00,
2013-02-11 13:42:00,79.3,67.0,30.18,WSW,243,2.0,9.0,66,0.00,,,0.00,Wunderground v.1.15,2013-02-11 18:42:00,
2013-02-11 13:47:00,79.4,66.6,30.18,South,179,2.0,9.0,65,0.00,,,0.00,Wunderground v.1.15,2013-02-11 18:47:00,
2013-02-11 13:52:00,79.0,66.7,30.17,SSW,198,1.0,6.0,66,0.00,,,0.00,Wunderground v.1.15,2013-02-11 18:52:00,
2013-02-11 13:57:00,78.4,66.1,30.17,NE,44,1.0,7.0,66,0.00,,,0.00,Wunderground v.1.15,2013-02-11 18:57:00,
2013-02-11 14:02:00,78.1,66.7,30.17,East,94,1.0,2.0,68,0.00,,,0.00,Wunderground v.1.15,2013-02-11 19:02:00,
2013-02-11 14:07:00,78.2,66.3,30.17,SSE,165,2.0,7.0,67,0.00,,,0.00,Wunderground v.1.15,2013-02-11 19:07:00,
2013-02-11 14:12:00,78.3,66.0,30.17,SSW,203,3.0,5.0,66,0.00,,,0.00,Wunderground v.1.15,2013-02-11 19:12:00,
2013-02-11 14:17:00,78.2,65.9,30.17,SE,136,6.0,7.0,66,0.00,,,0.00,Wunderground v.1.15,2013-02-11 19:17:00,
2013-02-11 14:22:00,77.7,65.9,30.16,ESE,106,2.0,6.0,67,0.00,,,0.00,Wunderground v.1.15,2013-02-11 19:22:00,
2013-02-11 14:27:00,77.6,65.8,30.16,ESE,112,3.0,8.0,67,0.00,,,0.00,Wunderground v.1.15,2013-02-11 19:27:00,
2013-02-11 14:32:00,77.9,66.5,30.16,SE,136,0.0,7.0,68,0.00,,,0.00,Wunderground v.1.15,2013-02-11 19:32:00,
2013-02-11 14:37:00,78.2,65.9,30.16,SE,138,5.0,7.0,66,0.00,,,0.00,Wunderground v.1.15,2013-02-11 19:37:00,
2013-02-11 14:42:00,78.1,66.2,30.16,East,90,0.0,3.0,67,0.00,,,0.00,Wunderground v.1.15,2013-02-11 19:42:00,
2013-02-11 14:47:00,78.0,66.2,30.16,ENE,63,5.0,10.0,67,0.00,,,0.00,Wunderground v.1.15,2013-02-11 19:47:00,
2013-02-11 14:52:00,78.2,66.3,30.16,ESE,108,0.0,5.0,67,0.00,,,0.00,Wunderground v.1.15,2013-02-11 19:52:00,
2013-02-11 14:57:00,78.7,66.4,30.15,SSE,162,4.0,8.0,66,0.00,,,0.00,Wunderground v.1.15,2013-02-11 19:57:00,
2013-02-11 15:02:00,78.7,66.8,30.15,SW,219,4.0,6.0,67,0.00,,,0.00,Wunderground v.1.15,2013-02-11 20:02:00,
2013-02-11 15:07:00,78.6,66.3,30.15,ESE,121,1.0,6.0,66,0.00,,,0.00,Wunderground v.1.15,2013-02-11 20:07:00,
2013-02-11 15:12:00,78.2,65.9,30.15,WSW,257,1.0,3.0,66,0.00,,,0.00,Wunderground v.1.15,2013-02-11 20:12:00,
2013-02-11 15:17:00,78.1,66.2,30.15,ESE,120,6.0,9.0,67,0.00,,,0.00,Wunderground v.1.15,2013-02-11 20:17:00,
2013-02-11 15:22:00,78.5,66.2,30.15,NW,308,0.0,5.0,66,0.00,,,0.00,Wunderground v.1.15,2013-02-11 20:22:00,
2013-02-11 15:27:00,79.5,66.7,30.15,East,91,3.0,6.0,65,0.00,,,0.00,Wunderground v.1.15,2013-02-11 20:27:00,
2013-02-11 15:32:00,79.5,66.3,30.15,ENE,67,3.0,6.0,64,0.00,,,0.00,Wunderground v.1.15,2013-02-11 20:32:00,
2013-02-11 15:37:00,79.0,66.2,30.15,ESE,112,1.0,6.0,65,0.00,,,0.00,Wunderground v.1.15,2013-02-11 20:37:00,
2013-02-11 15:42:00,78.9,66.6,30.15,SE,136,2.0,4.0,66,0.00,,,0.00,Wunderground v.1.15,2013-02-11 20:42:00,
2013-02-11 15:47:00,79.1,66.3,30.15,East,87,2.0,6.0,65,0.00,,,0.00,Wunderground v.1.15,2013-02-11 20:47:00,
2013-02-11 15:52:00,79.2,66.4,30.14,SSW,194,2.0,5.0,65,0.00,,,0.00,Wunderground v.1.15,2013-02-11 20:52:00,
2013-02-11 15:57:00,79.4,66.2,30.14,East,82,1.0,7.0,64,0.00,,,0.00,Wunderground v.1.15,2013-02-11 20:57:00,
2013-02-11 16:02:00,79.6,66.3,30.15,SSW,210,0.0,5.0,64,0.00,,,0.00,Wunderground v.1.15,2013-02-11 21:02:00,
2013-02-11 16:07:00,79.1,65.9,30.15,East,96,8.0,11.0,64,0.00,,,0.00,Wunderground v.1.15,2013-02-11 21:07:00,
2013-02-11 16:12:00,78.6,65.8,30.15,North,11,0.0,6.0,65,0.00,,,0.00,Wunderground v.1.15,2013-02-11 21:12:00,
2013-02-11 16:17:00,78.5,66.2,30.14,ESE,108,3.0,7.0,66,0.00,,,0.00,Wunderground v.1.15,2013-02-11 21:17:00,
2013-02-11 16:22:00,78.3,66.0,30.15,ESE,106,4.0,7.0,66,0.00,,,0.00,Wunderground v.1.15,2013-02-11 21:22:00,
2013-02-11 16:27:00,78.7,66.4,30.15,ENE,75,2.0,7.0,66,0.00,,,0.00,Wunderground v.1.15,2013-02-11 21:27:00,
2013-02-11 16:32:00,78.7,66.4,30.15,ENE,77,5.0,7.0,66,0.00,,,0.00,Wunderground v.1.15,2013-02-11 21:32:00,
2013-02-11 16:37:00,78.1,65.8,30.15,ESE,103,7.0,9.0,66,0.00,,,0.00,Wunderground v.1.15,2013-02-11 21:37:00,
2013-02-11 16:42:00,77.4,66.0,30.15,SE,136,0.0,8.0,68,0.00,,,0.00,Wunderground v.1.15,2013-02-11 21:42:00,
2013-02-11 16:47:00,77.6,66.2,30.14,SSE,159,2.0,8.0,68,0.00,,,0.00,Wunderground v.1.15,2013-02-11 21:47:00,
2013-02-11 16:52:00,77.6,66.2,30.14,South,185,2.0,7.0,68,0.00,,,0.00,Wunderground v.1.15,2013-02-11 21:52:00,
2013-02-11 16:57:00,77.9,66.1,30.14,ESE,106,5.0,7.0,67,0.00,,,0.00,Wunderground v.1.15,2013-02-11 21:57:00,
2013-02-11 17:02:00,78.0,66.2,30.14,SSE,166,2.0,6.0,67,0.00,,,0.00,Wunderground v.1.15,2013-02-11 22:02:00,
2013-02-11 17:07:00,78.1,66.2,30.14,SE,132,4.0,9.0,67,0.00,,,0.00,Wunderground v.1.15,2013-02-11 22:07:00,
2013-02-11 17:12:00,77.9,66.1,30.14,ESE,121,3.0,5.0,67,0.00,,,0.00,Wunderground v.1.15,2013-02-11 22:12:00,
2013-02-11 17:17:00,77.5,66.1,30.14,WSW,238,1.0,8.0,68,0.00,,,0.00,Wunderground v.1.15,2013-02-11 22:17:00,
2013-02-11 17:22:00,77.5,66.5,30.14,SW,232,0.0,6.0,69,0.00,,,0.00,Wunderground v.1.15,2013-02-11 22:22:00,
2013-02-11 17:27:00,77.4,66.0,30.14,South,187,3.0,7.0,68,0.00,,,0.00,Wunderground v.1.15,2013-02-11 22:27:00,
2013-02-11 17:32:00,77.1,66.1,30.14,ENE,76,0.0,9.0,69,0.00,,,0.00,Wunderground v.1.15,2013-02-11 22:32:00,
2013-02-11 17:37:00,76.5,66.0,30.14,SE,124,1.0,9.0,70,0.00,,,0.00,Wunderground v.1.15,2013-02-11 22:37:00,
2013-02-11 17:42:00,76.2,66.1,30.14,NE,49,0.0,4.0,71,0.00,,,0.00,Wunderground v.1.15,2013-02-11 22:42:00,
2013-02-11 17:47:00,75.9,65.8,30.14,SSW,210,1.0,7.0,71,0.00,,,0.00,Wunderground v.1.15,2013-02-11 22:47:00,
2013-02-11 17:52:00,75.5,65.8,30.14,SSE,151,0.0,9.0,72,0.00,,,0.00,Wunderground v.1.15,2013-02-11 22:52:00,
2013-02-11 17:57:00,75.0,65.4,30.14,SE,136,4.0,9.0,72,0.00,,,0.00,Wunderground v.1.15,2013-02-11 22:57:00,
2013-02-11 18:02:00,74.6,65.4,30.14,East,101,3.0,9.0,73,0.00,,,0.00,Wunderground v.1.15,2013-02-11 23:02:00,
2013-02-11 18:07:00,74.3,65.5,30.14,East,92,1.0,9.0,74,0.00,,,0.00,Wunderground v.1.15,2013-02-11 23:07:00,
2013-02-11 18:12:00,74.1,65.7,30.14,ESE,118,1.0,3.0,75,0.00,,,0.00,Wunderground v.1.15,2013-02-11 23:12:00,
2013-02-11 18:17:00,73.8,65.8,30.14,East,101,4.0,7.0,76,0.00,,,0.00,Wunderground v.1.15,2013-02-11 23:17:00,
2013-02-11 18:22:00,73.7,65.7,30.14,SSE,167,0.0,4.0,76,0.00,,,0.00,Wunderground v.1.15,2013-02-11 23:22:00,
2013-02-11 18:27:00,73.5,65.8,30.14,East,96,1.0,6.0,77,0.00,,,0.00,Wunderground v.1.15,2013-02-11 23:27:00,
2013-02-11 18:32:00,73.3,65.7,30.14,SE,128,1.0,2.0,77,0.00,,,0.00,Wunderground v.1.15,2013-02-11 23:32:00,
2013-02-11 18:37:00,73.2,65.6,30.13,SE,127,0.0,3.0,77,0.00,,,0.00,Wunderground v.1.15,2013-02-11 23:37:00,
2013-02-11 18:42:00,73.0,65.7,30.13,SSE,161,0.0,3.0,78,0.00,,,0.00,Wunderground v.1.15,2013-02-11 23:42:00,
2013-02-11 18:47:00,72.9,65.6,30.14,ESE,111,3.0,3.0,78,0.00,,,0.00,Wunderground v.1.15,2013-02-11 23:47:00,
2013-02-11 18:52:00,72.8,65.9,30.13,ESE,105,0.0,1.0,79,0.00,,,0.00,Wunderground v.1.15,2013-02-11 23:52:00,
2013-02-11 18:57:00,72.7,65.8,30.13,ESE,123,0.0,3.0,79,0.00,,,0.00,Wunderground v.1.15,2013-02-11 23:57:00,
2013-02-11 19:02:00,72.6,65.7,30.14,ESE,105,0.0,2.0,79,0.00,,,0.00,Wunderground v.1.15,2013-02-12 00:02:00,
2013-02-11 19:07:00,72.6,65.7,30.14,SW,215,0.0,2.0,79,0.00,,,0.00,Wunderground v.1.15,2013-02-12 00:07:00,
2013-02-11 19:12:00,72.4,65.9,30.14,SSW,197,0.0,3.0,80,0.00,,,0.00,Wunderground v.1.15,2013-02-12 00:12:00,
2013-02-11 19:17:00,72.4,65.9,30.14,SE,145,0.0,3.0,80,0.00,,,0.00,Wunderground v.1.15,2013-02-12 00:17:00,
2013-02-11 19:23:00,72.2,65.7,30.14,ESE,117,0.0,2.0,80,0.00,,,0.00,Wunderground v.1.15,2013-02-12 00:23:00,
2013-02-11 19:28:00,72.1,65.6,30.14,South,176,0.0,2.0,80,0.00,,,0.00,Wunderground v.1.15,2013-02-12 00:28:00,
2013-02-11 19:33:00,72.1,65.9,30.14,ESE,103,0.0,3.0,81,0.00,,,0.00,Wunderground v.1.15,2013-02-12 00:33:00,
2013-02-11 19:38:00,72.0,65.8,30.15,ESE,115,0.0,3.0,81,0.00,,,0.00,Wunderground v.1.15,2013-02-12 00:38:00,
2013-02-11 19:44:00,71.8,65.7,30.15,South,172,0.0,1.0,81,0.00,,,0.00,Wunderground v.1.15,2013-02-12 00:44:00,
2013-02-11 19:49:00,71.8,65.7,30.15,SE,141,0.0,2.0,81,0.00,,,0.00,Wunderground v.1.15,2013-02-12 00:49:00,
2013-02-11 19:54:00,71.7,65.6,30.15,South,190,0.0,3.0,81,0.00,,,0.00,Wunderground v.1.15,2013-02-12 00:54:00,
2013-02-11 19:59:00,71.7,65.6,30.15,SSE,158,0.0,3.0,81,0.00,,,0.00,Wunderground v.1.15,2013-02-12 00:59:00,
2013-02-11 20:04:00,71.6,65.5,30.15,South,179,0.0,2.0,81,0.00,,,0.00,Wunderground v.1.15,2013-02-12 01:04:00,
2013-02-11 20:09:00,71.4,65.6,30.15,SSE,165,0.0,2.0,82,0.00,,,0.00,Wunderground v.1.15,2013-02-12 01:09:00,
2013-02-11 20:14:00,71.3,65.5,30.15,SE,134,0.0,1.0,82,0.00,,,0.00,Wunderground v.1.15,2013-02-12 01:14:00,
2013-02-11 20:19:00,71.3,65.5,30.15,SE,142,1.0,1.0,82,0.00,,,0.00,Wunderground v.1.15,2013-02-12 01:19:00,
2013-02-11 20:24:00,71.3,65.9,30.15,SSE,148,0.0,3.0,83,0.00,,,0.00,Wunderground v.1.15,2013-02-12 01:24:00,
2013-02-11 20:29:00,71.3,65.9,30.15,SE,125,0.0,3.0,83,0.00,,,0.00,Wunderground v.1.15,2013-02-12 01:29:00,
2013-02-11 20:34:00,71.2,65.8,30.16,SSE,157,0.0,1.0,83,0.00,,,0.00,Wunderground v.1.15,2013-02-12 01:34:00,
2013-02-11 20:39:00,71.2,65.8,30.16,SSE,162,0.0,1.0,83,0.00,,,0.00,Wunderground v.1.15,2013-02-12 01:39:00,
2013-02-11 20:44:00,71.1,65.7,30.16,SE,137,0.0,2.0,83,0.00,,,0.00,Wunderground v.1.15,2013-02-12 01:44:00,
2013-02-11 20:50:00,71.1,65.7,30.16,ESE,108,0.0,0.0,83,0.00,,,0.00,Wunderground v.1.15,2013-02-12 01:50:00,
2013-02-11 20:55:00,71.1,65.7,30.16,ESE,110,0.0,2.0,83,0.00,,,0.00,Wunderground v.1.15,2013-02-12 01:55:00,
2013-02-11 21:00:00,71.0,65.9,30.16,SE,124,0.0,0.0,84,0.00,,,0.00,Wunderground v.1.15,2013-02-12 02:00:00,
2013-02-11 21:05:00,71.0,65.9,30.16,SSE,148,0.0,1.0,84,0.00,,,0.00,Wunderground v.1.15,2013-02-12 02:05:00,
2013-02-11 21:10:00,70.9,65.5,30.16,SE,145,0.0,0.0,83,0.00,,,0.00,Wunderground v.1.15,2013-02-12 02:10:00,
2013-02-11 21:15:00,70.8,65.7,30.16,ESE,116,0.0,1.0,84,0.00,,,0.00,Wunderground v.1.15,2013-02-12 02:15:00,
2013-02-11 21:20:00,70.8,65.7,30.15,SE,127,0.0,0.0,84,0.00,,,0.00,Wunderground v.1.15,2013-02-12 02:20:00,
2013-02-11 21:25:00,70.7,65.6,30.16,ESE,117,0.0,1.0,84,0.00,,,0.00,Wunderground v.1.15,2013-02-12 02:25:00,
2013-02-11 21:30:00,70.7,65.6,30.16,ESE,123,0.0,0.0,84,0.00,,,0.00,Wunderground v.1.15,2013-02-12 02:30:00,
2013-02-11 21:35:00,70.6,65.5,30.16,ESE,107,0.0,1.0,84,0.00,,,0.00,Wunderground v.1.15,2013-02-12 02:35:00,
2013-02-11 21:40:00,70.5,65.4,30.16,ESE,108,0.0,0.0,84,0.00,,,0.00,Wunderground v.1.15,2013-02-12 02:40:00,
2013-02-11 21:45:00,70.4,65.3,30.16,SE,135,0.0,1.0,84,0.00,,,0.00,Wunderground v.1.15,2013-02-12 02:45:00,
2013-02-11 21:50:00,70.3,65.2,30.16,South,186,0.0,0.0,84,0.00,,,0.00,Wunderground v.1.15,2013-02-12 02:50:00,
2013-02-11 21:55:00,70.2,65.5,30.16,SSE,153,0.0,3.0,85,0.00,,,0.00,Wunderground v.1.15,2013-02-12 02:55:00,
2013-02-11 22:00:00,70.1,65.4,30.15,SSE,148,0.0,0.0,85,0.00,,,0.00,Wunderground v.1.15,2013-02-12 03:00:00,
2013-02-11 22:05:00,70.1,65.4,30.16,SSE,166,0.0,2.0,85,0.00,,,0.00,Wunderground v.1.15,2013-02-12 03:05:00,
2013-02-11 22:10:00,70.1,65.4,30.15,ESE,103,1.0,1.0,85,0.00,,,0.00,Wunderground v.1.15,2013-02-12 03:10:00,
2013-02-11 22:15:00,70.1,65.4,30.15,SE,125,0.0,1.0,85,0.00,,,0.00,Wunderground v.1.15,2013-02-12 03:15:00,
2013-02-11 22:20:00,70.0,65.3,30.15,SE,128,0.0,1.0,85,0.00,,,0.00,Wunderground v.1.15,2013-02-12 03:20:00,
2013-02-11 22:25:00,70.0,65.3,30.15,SSE,160,0.0,1.0,85,0.00,,,0.00,Wunderground v.1.15,2013-02-12 03:25:00,
2013-02-11 22:30:00,69.9,65.2,30.15,SSE,159,0.0,0.0,85,0.00,,,0.00,Wunderground v.1.15,2013-02-12 03:30:00,
2013-02-11 22:35:00,69.8,65.4,30.15,ESE,115,0.0,1.0,86,0.00,,,0.00,Wunderground v.1.15,2013-02-12 03:35:00,
2013-02-11 22:41:00,69.8,65.4,30.15,ESE,118,0.0,0.0,86,0.00,,,0.00,Wunderground v.1.15,2013-02-12 03:41:00,
2013-02-11 22:45:00,69.7,65.3,30.15,ESE,117,0.0,1.0,86,0.00,,,0.00,Wunderground v.1.15,2013-02-12 03:45:00,
2013-02-11 22:50:00,69.6,65.2,30.15,ESE,117,0.0,0.0,86,0.00,,,0.00,Wunderground v.1.15,2013-02-12 03:50:00,
2013-02-11 22:55:00,69.4,65.0,30.15,ESE,117,0.0,0.0,86,0.00,,,0.00,Wunderground v.1.15,2013-02-12 03:55:00,
2013-02-11 23:00:00,69.3,65.3,30.15,ESE,121,0.0,0.0,87,0.00,,,0.00,Wunderground v.1.15,2013-02-12 04:00:00,
2013-02-11 23:05:00,69.4,65.4,30.15,ESE,121,0.0,1.0,87,0.00,,,0.00,Wunderground v.1.15,2013-02-12 04:05:00,
2013-02-11 23:10:00,69.3,65.3,30.15,ESE,113,0.0,1.0,87,0.00,,,0.00,Wunderground v.1.15,2013-02-12 04:10:00,
2013-02-11 23:15:00,69.2,64.8,30.15,ESE,104,1.0,1.0,86,0.00,,,0.00,Wunderground v.1.15,2013-02-12 04:15:00,
2013-02-11 23:20:00,69.0,64.6,30.15,ESE,104,0.0,0.0,86,0.00,,,0.00,Wunderground v.1.15,2013-02-12 04:20:00,
2013-02-11 23:25:00,68.8,64.8,30.15,ESE,105,0.0,0.0,87,0.00,,,0.00,Wunderground v.1.15,2013-02-12 04:25:00,
2013-02-11 23:30:00,68.8,65.1,30.14,ESE,104,0.0,0.0,88,0.00,,,0.00,Wunderground v.1.15,2013-02-12 04:30:00,
2013-02-11 23:35:00,68.6,64.9,30.14,ESE,105,0.0,0.0,88,0.00,,,0.00,Wunderground v.1.15,2013-02-12 04:35:00,
2013-02-11 23:40:00,68.4,64.7,30.14,ESE,104,0.0,0.0,88,0.00,,,0.00,Wunderground v.1.15,2013-02-12 04:40:00,
2013-02-11 23:45:00,68.4,64.7,30.14,ESE,104,0.0,0.0,88,0.00,,,0.00,Wunderground v.1.15,2013-02-12 04:45:00,
2013-02-11 23:50:00,68.3,64.9,30.14,ESE,104,0.0,0.0,89,0.00,,,0.00,Wunderground v.1.15,2013-02-12 04:50:00,
2013-02-11 23:55:00,68.3,64.9,30.14,ESE,104,0.0,0.0,89,0.00,,,0.00,Wunderground v.1.15,2013-02-12 04:55:00,